Location: Stigler
(35.2540°N, 95.1230°W)
Time: 02:18:26
(UTC-05:00)

Daily predictions for brighter satellites

Satellite Brightness Start Highest point End
(mag) Time Altitude Azimuth Time Altitude Azimuth Time Altitude Azimuth
Cosmos 2219 Rocket 4.2 00:06:04 23° NW 00:06:04 23° NW 00:09:57 10° N
CENTAUR R/B 4.3 01:13:30 10° NW 01:17:39 34° NW 01:17:39 34° NW
CZ-3A R/B 4.1 02:33:51 10° NW 02:43:00 47° NNE 02:43:26 46° NE
SL-16 R/B 3.5 03:04:42 42° ENE 03:04:42 42° ENE 03:10:04 10° N
USA 229 DEB 4.3 03:06:15 10° NNW 03:13:20 57° NE 03:14:06 55° E
USA 229 4.3 03:06:22 10° NNW 03:13:26 57° NE 03:14:20 53° E
ADEOS Rocket 4.2 03:23:32 10° N 03:26:26 31° NNW 03:26:26 31° NNW
Resurs 1-4 Rocket 3.0 03:42:05 10° N 03:45:39 44° N 03:45:39 44° N
ARIANE 5 R/B 3.3 03:43:10 10° NNE 03:46:57 48° NNE 03:46:57 48° NNE
COSMOS 2406 4.2 03:56:22 37° NNW 03:56:22 37° NNW 04:00:22 10° N
BREEZE-M DEB (TANK) 4.5 03:56:54 58° SSW 03:56:54 58° SSW 04:17:01 10° SE
Cosmos 1447 Rocket 4.4 03:54:45 10° N 04:00:58 80° E 04:01:17 77° ESE
Tiangong 2 4.3 04:08:15 14° ENE 04:08:15 14° ENE 04:08:49 10° ENE
CZ-2D R/B 2.9 04:03:13 10° N 04:07:04 42° NNW 04:07:04 42° NNW
Cosmos 2285 Rocket 4.5 04:11:44 46° NW 04:11:44 46° NW 04:17:24 10° N
Cosmos 773 Rocket 4.1 04:12:56 76° ENE 04:12:56 76° ENE 04:17:55 10° NNE
Meteor 2-2 Rocket 4.3 04:17:22 67° SSE 04:18:12 82° E 04:24:15 10° N
IRS-1D 4.5 04:14:00 10° N 04:17:40 36° NW 04:17:40 36° NW
Cosmos 2173 Rocket 4.1 04:17:42 51° SSE 04:19:21 76° E 04:25:43 10° N
MOZ.5/SAFIR/RUBIN 5/SL-8 4.2 04:23:01 54° NNW 04:23:01 54° NNW 04:26:39 10° NNW
Cosmos 1470 Rocket 4.3 04:21:18 10° N 04:25:30 50° E 04:26:14 44° ESE
OAO 1 4.4 04:25:56 84° WSW 04:26:05 87° S 04:31:38 10° E
COSMOS 2487 4.0 04:28:16 35° ENE 04:28:16 35° ENE 04:30:55 10° NNE
Cosmos 1515 Rocket 3.6 04:30:44 75° ENE 04:30:44 75° ENE 04:34:58 10° N
ADEOS II 3.1 04:27:26 10° NNE 04:32:25 42° E 04:35:23 22° SSE
Cosmos 1633 Rocket 4.3 04:30:31 10° NNW 04:32:57 31° NNW 04:32:57 31° NNW
Lacrosse 5 3.3 04:31:15 10° NNW 04:35:57 37° NE 04:40:39 10° ESE
Cosmos 2082 Rocket 2.4 04:35:50 42° S 04:37:36 65° ESE 04:43:11 10° NNE
Cosmos 1459 Rocket 3.8 04:37:03 53° SSW 04:38:29 74° W 04:44:34 10° N
Cosmos 2228 Rocket 3.2 04:39:48 63° NW 04:39:48 63° NW 04:43:46 10° N
Cosmos 2084 4.2 04:40:10 39° SE 04:40:31 40° ESE 04:44:14 10° NE
ADEOS 4.4 04:35:56 10° N 04:40:13 35° WNW 04:40:13 35° WNW
OAO 2 Rocket 3.4 04:46:15 53° S 04:46:36 54° SSE 04:51:25 10° E
SL-16 R/B 3.8 04:49:48 23° WNW 04:49:48 23° WNW 04:53:05 10° NW
Cosmos 1328 Rocket 4.4 04:54:13 34° NW 04:54:13 34° NW 04:57:30 10° N
CZ-4B R/B 4.3 04:55:41 10° NNE 05:00:47 41° E 05:05:48 10° S
Cosmos 1892 2.6 05:00:26 10° N 05:04:17 90° ENE 05:06:08 30° S
Cosmos 1656 3.9 04:58:48 10° NNW 05:04:31 72° ENE 05:10:10 10° SSE
PSLV R/B 4.0 05:00:58 10° NNE 05:05:14 59° E 05:08:15 18° S
Meteor 2-3 Rocket 3.7 05:00:19 10° N 05:06:00 89° E 05:11:44 10° S
PSLV R/B 3.9 05:03:05 10° NNE 05:07:14 81° ESE 05:09:16 29° S
Kakehashi 3.9 05:05:37 33° WSW 05:08:07 58° S 05:16:21 10° E
NOSS 3-1 (A) 4.0 05:01:42 10° NW 05:09:33 73° WSW 05:18:03 10° SSE
Cosmos 2369 3.6 05:06:24 10° NNW 05:12:02 74° WSW 05:17:39 10° SSE
IUS-9 SRM-1 4.0 05:11:04 28° SSW 05:13:08 39° SSE 05:28:06 10° E
Cosmos 2233 Rocket 4.4 05:09:53 10° S 05:15:56 64° E 05:21:59 10° NNE
GPS 2-04 Rocket1 4.0 05:15:45 20° S 05:16:20 21° SSE 05:19:02 10° ESE
Cosmos 923 Rocket 4.4 05:14:38 33° WSW 05:16:21 43° WNW 05:21:22 10° N
Cosmos 1151 Rocket 3.6 05:18:16 33° W 05:18:47 34° W 05:22:43 10° NNW
Cosmos 1933 Rocket 4.0 05:15:11 10° NNW 05:19:21 41° W 05:20:45 31° SW
Hubble Space Telescope 1.7 05:19:53 29° SSW 05:20:25 30° S 05:24:04 10° SE
PAYLOAD B 4.4 05:16:13 10° NNE 05:21:50 77° ESE 05:27:23 10° S
Cosmos 2016 Rocket 4.3 05:19:15 25° SW 05:22:27 45° W 05:28:16 10° N
Cosmos 1900 4.3 05:20:43 24° SSW 05:23:50 89° WNW 05:28:59 10° NNE
Meteor 2-12 Rocket 4.5 05:21:50 10° S 05:27:52 81° E 05:33:57 10° N
Cosmos 1833 Rocket 3.1 05:27:10 24° WSW 05:30:08 44° WNW 05:35:32 10° N
USA 234 4.3 05:26:49 10° ENE 05:32:55 41° SE 05:38:58 10° SSW
Cosmos 1680 Rocket 4.1 05:31:26 23° WSW 05:34:11 40° WNW 05:39:12 10° N
Cosmos 1707 Rocket 3.7 05:30:34 10° S 05:34:58 79° E 05:39:22 10° N
ATLAS 5 CENTAUR R/B 4.0 05:32:45 10° SSE 05:36:08 21° ESE 05:39:41 10° ENE
PSLV R/B 3.0 05:35:10 21° WNW 05:37:08 79° SSW 05:40:22 10° ESE
Cosmos 1725 Rocket 4.2 05:32:10 14° SSW 05:37:23 50° W 05:43:22 10° N
CZ-4B R/B 3.5 05:37:02 10° N 05:41:22 46° WNW 05:44:58 14° SW
Okean O Rocket 1.7 05:38:28 10° N 05:42:47 54° WNW 05:46:50 11° SSW
Tiangong 2 2.9 05:40:37 13° WNW 05:42:47 24° N 05:45:31 10° NE
CZ-2C R/B 4.4 05:39:42 10° SSE 05:44:02 57° ENE 05:48:25 10° N
Okean-O 4.4 05:40:45 10° NNE 05:44:47 33° E 05:48:47 10° SSE
NOSS 2-1 (E) 4.2 05:42:42 10° S 05:46:16 45° ESE 05:50:03 10° NE
IRS-1C Rocket 4.1 05:43:11 10° N 05:48:26 74° WNW 05:53:40 10° SSW
Shenzhou-11 Module 4.2 05:46:04 10° WNW 05:48:28 20° N 05:50:52 10° NE
Cosmos 1980 Rocket 2.6 05:45:06 10° NNW 05:50:43 70° ENE 05:56:19 10° SSE
Cosmos 1455 3.6 05:51:38 17° WSW 05:52:59 20° WNW 05:55:49 10° NNW
ASTEX 1 4.4 05:56:08 10° NNE 06:00:53 50° E 06:05:36 10° SSE
Cosmos 2056 Rocket 3.7 05:57:49 10° NNW 06:03:15 81° ENE 06:08:40 10° SSE
EO 1 Del DPAF 3.8 06:00:29 10° SSE 06:04:17 65° ENE 06:08:06 10° N
Cosmos 1697 Rocket 2.9 05:59:36 10° NNW 06:05:02 49° WSW 06:10:27 10° S
Cosmos 1862 Rocket 4.5 06:04:33 10° S 06:08:54 54° E 06:13:17 10° NNE
ADEOS II 3.5 06:07:58 10° NNW 06:11:48 21° WNW 06:15:36 10° WSW
Cosmos 1464 Rocket 4.2 06:07:59 10° S 06:14:14 83° E 06:20:36 10° N
BREEZE-M DEB (TANK) 4.2 06:16:40 10° SW 06:17:32 11° SSW 06:18:32 10° SSW
Meteor PRIRODA 4.4 06:14:39 10° N 06:17:59 34° WNW 06:21:17 10° SW
Lacrosse 5 2.6 06:14:23 10° WNW 06:18:48 30° WSW 06:23:11 10° S
